Hanford, CA

1:42 AM PDT on May 30, 2017 (GMT -0700)
Hanford Municipal

Weather History for KHJO - May, 2013

Change the Weather History Date:

Tuesday, May 28, 2013

  Actual Average Record
Temperature  
Mean Temperature 71 °F 71 °F  
Max Temperature 84 °F 87 °F 104 °F (2003)
Min Temperature 58 °F 56 °F 45 °F (1936)
Degree Days  
Heating Degree Days 0    
Month to date heating degree days 6  
Since 1 July heating degree days 2324  
Cooling Degree Days 6    
Month to date cooling degree days 164  
Year to date cooling degree days 228  
Growing Degree Days 20 (Base 50)    
Moisture  
Dew Point 52 °F    
Average Humidity 53    
Maximum Humidity 75    
Minimum Humidity 31    
Precipitation  
Precipitation 0.00 in 0.01 in 0.06 in (1998)
Month to date precipitation 0.18 0.39  
Year to date precipitation 1.60 6.58  
Since 1 July precipitation 3.60  
Snow  
Snow 0.00 in - - ()
Month to date snowfall 0.0  
Since 1 July snowfall 0.0  
Snow Depth 0.00 in    
Sea Level Pressure  
Sea Level Pressure 29.92 in    
Wind  
Wind Speed 11 mph (NW)    
Max Wind Speed 22 mph    
Max Gust Speed 28 mph    
Visibility 10 miles    
Events      
T = Trace of Precipitation, MM = Missing Value Source: NWS Daily Summary

Daily Weather History Graph

Daily Weather History Graph

Search for Another Location

Airport or City:

Trip Planner

Search our weather history database for the weather conditions in past years. The results will help you decide how hot, cold, wet, or windy it might be!

Date:

Astronomy

May. 28, 2013 Rise Set
Actual Time 5:43 AM PDT 8:08 PM PDT
Civil Twilight 5:14 AM PDT 8:38 PM PDT
Nautical Twilight 4:37 AM PDT 9:14 PM PDT
Astronomical Twilight 3:57 AM PDT 9:54 PM PDT
Moon 11:39 PM PDT (5/28) 9:35 AM PDT (5/28)
Length of Visible Light 15h 23m
Length of Day
14h 24m
Waning Gibbous, 82% of the Moon is Illuminated
May 28
Waning Gibbous
May 31
Last Quarter
Jun 8
New
Jun 16
First Quarter
Jun 23
Full

Hourly Weather History & Observations

Time (PDT) Temp. Heat Index Dew Point Humidity Pressure Visibility Wind Dir Wind Speed Gust Speed Precip Events Conditions
12:53 AM 62.1 °F - 52.0 °F 70% 29.98 in 10.0 mi NNW 9.2 mph - N/A   Clear
1:53 AM 61.0 °F - 52.0 °F 72% 29.98 in 10.0 mi NW 10.4 mph - N/A   Clear
2:53 AM 60.1 °F - 52.0 °F 75% 29.97 in 10.0 mi NW 10.4 mph - N/A   Clear
3:53 AM 60.1 °F - 52.0 °F 75% 29.96 in 10.0 mi NW 8.1 mph - N/A   Mostly Cloudy
4:53 AM 59.0 °F - 52.0 °F 78% 29.95 in 10.0 mi NNW 5.8 mph - N/A   Clear
5:53 AM 59.0 °F - 52.0 °F 78% 29.95 in 10.0 mi NW 4.6 mph - N/A   Overcast
6:53 AM 60.1 °F - 52.0 °F 75% 29.96 in 10.0 mi NW 5.8 mph - N/A   Overcast
7:53 AM 62.1 °F - 53.1 °F 72% 29.95 in 10.0 mi NW 6.9 mph - N/A   Overcast
8:53 AM 64.9 °F - 54.0 °F 68% 29.97 in 10.0 mi WNW 8.1 mph - N/A   Overcast
9:53 AM 71.1 °F - 53.1 °F 53% 29.95 in 10.0 mi NNW 10.4 mph - N/A   Scattered Clouds
10:53 AM 73.0 °F - 54.0 °F 51% 29.95 in 10.0 mi NW 17.3 mph 21.9 mph N/A   Partly Cloudy
11:53 AM 75.9 °F - 54.0 °F 46% 29.94 in 10.0 mi WNW 9.2 mph 18.4 mph N/A   Clear
12:53 PM 77.0 °F - 54.0 °F 45% 29.92 in 10.0 mi West 10.4 mph 19.6 mph N/A   Clear
1:53 PM 80.1 °F 79.9 °F 53.1 °F 39% 29.91 in 10.0 mi NW 13.8 mph 21.9 mph N/A   Partly Cloudy
2:53 PM 81.0 °F 80.4 °F 53.1 °F 38% 29.89 in 10.0 mi NNW 11.5 mph 20.7 mph N/A   Clear
3:53 PM 82.0 °F - 48.9 °F 31% 29.88 in 10.0 mi NNW 13.8 mph 23.0 mph N/A   Clear
4:53 PM 82.9 °F - 48.9 °F 31% 29.86 in 10.0 mi NW 16.1 mph 25.3 mph N/A   Clear
5:53 PM 81.0 °F - 50.0 °F 34% 29.84 in 10.0 mi NW 16.1 mph 21.9 mph N/A   Clear
6:53 PM 80.1 °F - 51.1 °F 36% 29.84 in 10.0 mi NNW 16.1 mph 20.7 mph N/A   Clear
7:53 PM 75.9 °F - 52.0 °F 43% 29.84 in 10.0 mi NNW 13.8 mph - N/A   Clear
8:53 PM 73.0 °F - 53.1 °F 49% 29.85 in 10.0 mi NNW 11.5 mph - N/A   Clear
9:53 PM 71.1 °F - 51.1 °F 49% 29.87 in 10.0 mi NNW 12.7 mph - N/A   Clear
10:53 PM 69.1 °F - 48.9 °F 49% 29.89 in 10.0 mi NNW 9.2 mph - N/A   Clear
11:53 PM 68.0 °F - 50.0 °F 52% 29.88 in 10.0 mi NW 10.4 mph - N/A   Clear